Location: Campo Claro
(10.4907°N, 66.8285°W)
Time: 06:16:19
(UTC+00:00)

Cosmos 1553 Rocket - Pass Details

Date: 06 July 2022
Orbit: 941 x 1008 km, 82.9° (Epoch: 12 August)

Event Time Altitude Azimuth Distance (km) Brightness Sun altitude
Rises 23:47:41 0° 196° (SSW) 3,682 6.9 -12.9°
Reaches altitude 10° 23:50:16 10° 202° (SSW) 2,743 6.3 -13.5°
Maximum altitude 23:56:18 48° 275° (W) 1,282 5.1 -14.8°
Drops below altitude 10° 00:02:25 10° 348° (NNW) 2,774 6.9 -16.1°
Sets 00:05:03 0° 354° (N) 3,727 7.5 -16.7°
